Location: Poughquag
(41.6090°N, 73.6820°W)
Time: 03:28:41
(UTC-05:00)

DIWATA 2B (PO-101) - Visible Passes

Search period start: 13 November 2025 00:00
Search period end: 23 November 2025 00:00
Orbit: 564 x 574 km, 98.1° (Epoch: 13 November)

Date Brightness Start Highest point End Pass type
(mag) Time Alt. Az. Time Alt. Az. Time Alt. Az.
13 Nov ? 05:13:18 10° S 05:17:22 81° W 05:21:25 10° NNW visible
13 Nov ? 18:27:39 10° N 18:31:34 51° WNW 18:35:29 10° SSW visible
14 Nov ? 05:14:55 10° S 05:18:58 78° WSW 05:23:01 10° NNW visible
14 Nov ? 18:29:15 10° N 18:33:10 49° WNW 18:37:03 10° SSW visible
15 Nov ? 05:16:30 10° S 05:20:32 76° WSW 05:24:36 10° NNW visible
15 Nov ? 18:30:51 10° N 18:34:45 48° WNW 18:38:37 10° SSW visible
16 Nov ? 03:47:24 10° ENE 03:47:40 10° ENE 03:47:55 10° ENE visible
16 Nov ? 05:18:05 10° S 05:22:07 73° WSW 05:26:10 10° NNW visible
16 Nov ? 16:58:56 10° ENE 17:01:00 14° E 17:03:04 10° ESE visible
16 Nov ? 18:32:26 10° N 18:36:18 46° WNW 18:40:09 10° SW visible
17 Nov ? 03:48:29 10° ENE 03:49:12 10° ENE 03:49:56 10° NE visible
17 Nov ? 05:19:39 10° S 05:23:40 70° WSW 05:27:43 10° NNW visible
17 Nov ? 17:00:23 10° ENE 17:02:35 14° E 17:04:45 10° SE visible
17 Nov ? 18:34:11 11° N 18:37:51 44° WNW 18:41:41 10° SW visible
18 Nov ? 03:49:45 10° ENE 03:50:44 11° ENE 03:51:44 10° NE visible
18 Nov ? 05:21:13 10° S 05:25:14 67° WSW 05:29:16 10° NNW visible
18 Nov ? 17:01:50 10° ENE 17:04:07 15° E 17:06:24 10° SE visible
18 Nov ? 18:35:56 12° N 18:39:23 43° WNW 18:43:12 10° SW visible
19 Nov ? 03:51:04 10° E 03:52:16 11° ENE 03:53:28 10° NE visible
19 Nov ? 05:22:46 10° S 05:26:46 65° W 05:30:48 10° NNW visible
19 Nov ? 17:03:17 10° NE 17:05:40 15° E 17:08:03 10° SE visible
19 Nov ? 18:37:39 13° N 18:40:54 41° WNW 18:44:43 10° SW visible
20 Nov ? 03:52:25 10° E 03:53:46 11° ENE 03:55:08 10° NE visible
20 Nov ? 05:24:18 10° S 05:28:17 62° WSW 05:32:19 10° NNW visible
20 Nov ? 17:04:43 10° NE 17:07:12 16° E 17:09:40 10° SE visible
20 Nov ? 18:39:21 14° N 18:42:25 40° WNW 18:46:12 10° SW visible
21 Nov ? 03:53:46 10° E 03:55:16 12° ENE 03:56:47 10° NE visible
21 Nov ? 05:25:50 10° S 05:29:48 60° WSW 05:33:49 10° NNW visible
21 Nov ? 17:06:09 10° NE 17:08:43 16° E 17:11:16 10° SE visible
21 Nov ? 18:41:01 15° N 18:43:55 38° WNW 18:47:40 10° SW visible
22 Nov ? 03:55:07 10° E 03:56:45 12° ENE 03:58:23 10° NE visible
22 Nov ? 05:27:20 10° S 05:31:18 58° W 05:35:18 10° NNW visible
22 Nov ? 17:07:35 10° NE 17:10:13 17° E 17:12:51 10° SE visible
22 Nov ? 18:42:39 16° N 18:45:24 37° WNW 18:49:08 10° SW visible
